Preview of NWS' New Version of Forecast
This preview is not operational and should not be used for support decisions.

Regional Weather Roundup (RWR)

Issued by National Weather Service (NWS)

                            
000
ASUS43 KLSX 220457
RWRMO 

WEATHER SUMMARY FOR MISSOURI
NATIONAL WEATHER SERVICE SPRINGFIELD MO
1200 AM CDT MON JUL 22 2019

NOTE: "FAIR" INDICATES FEW OR NO CLOUDS BELOW 12,000 FEET WITH NO
       SIGNIFICANT WEATHER AND/OR OBSTRUCTIONS TO VISIBILITY.
       CURRENT SKY AND/OR WEATHER CONDITIONS ARE NOT AVAILABLE FOR
       CHILLICOTHE AND FARMINGTON.

MOZ001>031-035>038-043-044-053-054-220600-
...NORTHERN AND WESTERN MISSOURI...
  
CITY           SKY/WX    TMP DP  RH WIND       PRES   REMARKS
KANSAS CTY INT MOCLDY    71  70  96 N12       30.03R                  
KANSAS C DTWN  LGT RAIN  73  70  88 NE7       30.02R                  
LEE'S SUMMIT   LGT RAIN  72  69  90 NE15      30.02R                  
ST JOSEPH      CLOUDY    71  69  93 N8        30.06R                  
CHILLICOTHE      N/A     73  71  93 N7        30.04R                  
     
$$
MOZ066>068-077>081-088>096-101>105-220600-
...SOUTHWEST MISSOURI...
  
CITY           SKY/WX    TMP DP  RH WIND       PRES   REMARKS
SPRINGFIELD    MOCLDY    82  72  71 SW7       29.92S                  
JOPLIN         TSTM      70  69  97 SW8       29.97R FOG              
               
$$
MOZ032>034-039>042-045>050-055>058-069>072-220600-
...CENTRAL MISSOURI...  
  
CITY           SKY/WX    TMP DP  RH WIND       PRES   REMARKS
COLUMBIA       NOT AVBL                                               
ROLLA          LGT RAIN  76  71  85 N6        29.97R                  
SEDALIA        RAIN      71  71 100 N8        30.00R FOG              
WARRENSBURG    CLOUDY    70  70 100 N9        30.00R                  
OSAGE BEACH    LGT RAIN  75  73  94 NE9       29.95F                  
               
$$
MOZ051-052-059>065-220600-
...EAST CENTRAL MISSOURI...
  
CITY           SKY/WX    TMP DP  RH WIND       PRES   REMARKS
ST LOUIS INTL  MOCLDY    82  72  71 NE8       29.93S                  
                   
$$
MOZ072>076-082>087-097>100-106>115-220600-
...SOUTH CENTRAL AND SOUTHEAST MISSOURI...
  
CITY           SKY/WX    TMP DP  RH WIND       PRES   REMARKS
CAPE GIRARDEAU HVY RAIN  76  71  85 S15G25    29.92R                  
POPLAR BLUFF   FAIR      81  79  94 S8        29.91R HX  90           
WEST PLAINS    CLEAR     79  72  79 S5        29.95F                  
                                       
$$